This is the latest recevied weather packets stored in our database for station/object VA3XLT-1. If no packets are shown the sender has not sent any weather packets the latest 10 day(s).
| Time | Temp. | Humidity | Pressure | Rain* | Wind** | Luminosity | Snow |
|---|---|---|---|---|---|---|---|
| 1777329779 | 15.56° C | 64% | 1015.1 hPa | 0 mm | - | - | - |
| 1777329479 | 15.56° C | 64% | 1015.2 hPa | 0 mm | - | - | - |
| 1777329179 | 15.56° C | 62% | 1015.3 hPa | 0 mm | - | - | - |
| 1777328879 | 15.56° C | 63% | 1015.3 hPa | 0 mm | - | - | - |
| 1777328579 | 16.11° C | 62% | 1015.3 hPa | 0 mm | - | - | - |
| 1777328279 | 16.11° C | 62% | 1015.3 hPa | 0 mm | - | - | - |
| 1777327979 | 16.11° C | 63% | 1015.4 hPa | 0 mm | - | - | - |
| 1777327679 | 16.11° C | 61% | 1015.4 hPa | 0 mm | - | - | - |
| 1777327379 | 16.11° C | 61% | 1015.5 hPa | 0 mm | - | - | - |
| 1777327079 | 16.11° C | 62% | 1015.5 hPa | 0 mm | - | - | - |
| 1777326779 | 16.67° C | 61% | 1015.5 hPa | 0 mm | - | - | - |
| 1777326479 | 16.67° C | 61% | 1015.5 hPa | 0 mm | - | - | - |
| 1777326179 | 16.67° C | 60% | 1015.5 hPa | 0 mm | - | - | - |
| 1777325879 | 16.67° C | 57% | 1015.6 hPa | 0 mm | - | - | - |
| 1777325579 | 17.22° C | 60% | 1015.6 hPa | 0 mm | - | - | - |
| 1777325279 | 17.22° C | 59% | 1015.7 hPa | 0 mm | - | - | - |
| 1777324979 | 17.22° C | 59% | 1015.7 hPa | 0 mm | - | - | - |
| 1777324679 | 17.78° C | 59% | 1015.6 hPa | 0 mm | - | - | - |
| 1777324379 | 17.78° C | 61% | 1015.5 hPa | 0 mm | - | - | - |
| 1777324079 | 17.78° C | 60% | 1015.7 hPa | 0 mm | - | - | - |
| 1777323779 | 17.78° C | 61% | 1015.9 hPa | 0 mm | - | - | - |
| 1777323479 | 17.78° C | 58% | 1015.9 hPa | 0 mm | - | - | - |
| 1777323179 | 17.78° C | 59% | 1015.9 hPa | 0 mm | - | - | - |
| 1777322879 | 17.78° C | 59% | 1016 hPa | 0 mm | - | - | - |
| 1777322579 | 17.78° C | 57% | 1015.9 hPa | 0 mm | - | - | - |
* Rain latest hour (hover to see other rain measurements)
** Current wind speed in m/s (hover to see current wind gust speed)